{"data":{"norad_id":56934,"epoch":"2026-09-21T22:37:30.329760Z","epoch_age_seconds":75124,"freshness":"FRESH","line1":"1 56934U 23084C   26264.94271215  .00004984  00000+0  14544-3 0  9990","line2":"2 56934  97.6351  49.2484 0005364  14.4717 345.6679 15.35823615182373","mean_motion":15.35823615,"eccentricity":0.0005364,"inclination_deg":97.6351,"raan_deg":49.2484,"arg_perigee_deg":14.4717,"mean_anomaly_deg":345.6679,"bstar":0.00014544,"rev_number":18237,"period_min":93.760766922444,"perigee_km":454.80806640507,"apogee_km":462.14238400027,"semimajor_km":6836.6122252027,"source":"CELESTRAK","updated_at":"2026-09-22T09:00:25.992415Z"}}